Regional Weather Roundup
Issued by NWS Binghamton, NY

Home | Current Version | Previous Version | Text Only | Print | Product List | Glossary On
Versions: 1 2 3 4 5 6 7 8 9 10 11 12 13 14 15 16 17 18 19 20 21 22 23 24 25 26 27 28 29 30 31 32 33 34 35 36 37 38 39 40 41 42 43 44 45 46 47 48 49 50
000
ASUS41 KBGM 282010
RWRBGM
RWRBGM
BINGHAMTON REGIONAL WEATHER ROUNDUP
NATIONAL WEATHER SERVICE BINGHAMTON NY
400 PM EDT MON JUL 28 2014

Note: "fair" indicates few or no clouds below 12,000 feet with no
significant weather and/or obstructions to visibility.

* = Station(s) that does not report precipitation, such as rain,
snow, etc, also no thunder or fog.

!NYZ009-015>018-022>025-036-037-044>046-055>057-062-282100
...CENTRAL NEW YORK...

CITY           SKY/WX    TMP DP  RH WIND       PRES   REMARKS
BINGHAMTON     CLOUDY    68  60  75 N13G21    29.60R
CORTLAND       CLOUDY    63  61  94 N8G17     29.63R FOG
DANSVILLE      LGT RAIN  59  58  96 NW15      29.75R FOG
ELMIRA         LGT RAIN  64  60  87 NW13G20   29.66R FOG
ITHACA         LGT RAIN  62  60  93 N16G23    29.66R
HAMILTON       CLOUDY    66  61  82 NW12G17   29.58R
MONTICELLO     PTSUNNY   70  63  78 W13G18    29.58R
NORWICH        LGT RAIN  64  63  94 N5        29.57S
PENN YAN       CLOUDY    60  58  92 NW9G23    29.70R
ROME           LGT RAIN  66  60  81 N14G23    29.57R
SIDNEY         CLOUDY    70  68  94 CALM      29.57R
SYRACUSE       LGT RAIN  61  61 100 NW13      29.63R FOG
$$

!PAZ038>040-043-044-047-048-072-282100
...NORTHEAST PENNSYLVANIA...

CITY           SKY/WX    TMP DP  RH WIND       PRES   REMARKS
HAZLETON       PTSUNNY   73  59  60 W6G16     29.66R
SCRANTON       LGT RAIN  63  59  87 S5        29.62R FOG
TOWANDA*       MOSUNNY   66  63  88 NW12G22   29.64R
$$
&&
KEY
WCI = WIND CHILL INDEX
VSB = VISIBILITY
HX  = HEAT INDEX
$$


USA.gov is the U.S. government's official web portal to all federal, state and local government web resources and services.